Location: Astronomy Club of Akron Observatory
(40.9700°N, 81.5606°W)
Time: 17:46:11
(UTC-05:00)

Cosmos 1441 Rocket - Visible Passes

Search period start: 27 February 2017 00:00
Search period end: 09 March 2017 00:00
Orbit: 499 x 544 km, 81.1° (Epoch: 27 February)

Date Brightness Start Highest point End Pass type
(mag) Time Alt. Az. Time Alt. Az. Time Alt. Az.
27 Feb 5.0 19:36:45 10° NNE 19:38:20 18° NE 19:38:20 18° NE visible
27 Feb 6.1 21:12:33 10° NW 21:13:31 15° NW 21:13:31 15° NW visible
28 Feb 4.7 19:23:40 10° NNE 19:26:09 19° ENE 19:26:09 19° ENE visible
28 Feb 5.6 20:59:12 10° NNW 21:01:21 23° WNW 21:01:21 23° WNW visible
01 Mar 4.8 19:10:37 10° NNE 19:13:22 18° ENE 19:14:09 17° E visible
01 Mar 5.0 20:45:52 10° NNW 20:49:21 32° W 20:49:21 32° W visible
02 Mar 4.9 18:57:36 10° NNE 19:00:05 16° ENE 19:02:22 11° ESE visible
02 Mar 4.7 20:32:32 10° NNW 20:36:13 36° W 20:37:36 27° SW visible
03 Mar 5.0 18:44:38 10° NE 18:46:48 14° ENE 18:48:59 10° ESE visible
03 Mar 4.5 20:19:14 10° NNW 20:23:01 41° W 20:26:12 14° SSW visible
04 Mar 4.3 20:05:56 10° NNW 20:09:48 47° W 20:13:38 10° S visible
05 Mar 4.0 19:52:39 10° NNW 19:56:34 55° W 20:00:28 10° S visible
06 Mar 3.8 19:39:23 10° NNW 19:43:22 63° W 19:47:18 10° S visible
07 Mar 3.5 19:26:07 10° NNW 19:30:08 73° W 19:34:06 10° S visible
08 Mar 3.4 19:12:52 10° N 19:16:54 83° W 19:20:53 10° S visible
